Year,Month,Day,Hour,Minute,Value (Times are PST for temperature in C)
2012,08,27,00,00,12.60
2012,08,27,00,01,12.60
2012,08,27,00,02,12.60
2012,08,27,00,03,12.60
2012,08,27,00,04,12.50
2012,08,27,00,05,12.50
2012,08,27,00,06,12.50
2012,08,27,00,07,12.50
2012,08,27,00,08,12.40
2012,08,27,00,09,12.40
2012,08,27,00,10,12.40
2012,08,27,00,11,12.40
2012,08,27,00,12,12.40
2012,08,27,00,13,12.30
2012,08,27,00,14,12.30
2012,08,27,00,15,12.30
2012,08,27,00,16,12.30
2012,08,27,00,17,12.30
2012,08,27,00,18,12.30
2012,08,27,00,19,12.30
2012,08,27,00,20,12.30
2012,08,27,00,21,12.30
2012,08,27,00,22,12.30
2012,08,27,00,23,12.30
2012,08,27,00,24,12.30
2012,08,27,00,25,12.30
2012,08,27,00,26,12.30
2012,08,27,00,27,12.20
2012,08,27,00,28,12.20
2012,08,27,00,29,12.20
2012,08,27,00,30,12.20
2012,08,27,00,31,12.10
2012,08,27,00,32,12.10
2012,08,27,00,33,12.10
2012,08,27,00,34,12.10
2012,08,27,00,35,12.10
2012,08,27,00,36,12.10
2012,08,27,00,37,12.10
2012,08,27,00,38,12.10
2012,08,27,00,39,12.10
2012,08,27,00,40,12.00
2012,08,27,00,41,12.00
2012,08,27,00,42,12.00
2012,08,27,00,43,12.00
2012,08,27,00,44,12.00
2012,08,27,00,45,12.00
2012,08,27,00,46,12.00
2012,08,27,00,47,11.90
2012,08,27,00,48,11.90
2012,08,27,00,49,11.90
2012,08,27,00,50,11.80
2012,08,27,00,51,11.80
2012,08,27,00,52,11.80
2012,08,27,00,53,11.80
2012,08,27,00,54,11.80
2012,08,27,00,55,11.80
2012,08,27,00,56,11.80
2012,08,27,00,57,11.80
2012,08,27,00,58,11.80
2012,08,27,00,59,11.80
2012,08,27,01,00,11.80
2012,08,27,01,01,11.70
2012,08,27,01,02,11.70
2012,08,27,01,03,11.70
2012,08,27,01,04,11.70
2012,08,27,01,05,11.60
2012,08,27,01,06,11.60
2012,08,27,01,07,11.60
2012,08,27,01,08,11.60
2012,08,27,01,09,11.60
2012,08,27,01,10,11.60
2012,08,27,01,11,11.60
2012,08,27,01,12,11.60
2012,08,27,01,13,11.60
2012,08,27,01,14,11.60
2012,08,27,01,15,11.50
2012,08,27,01,16,11.40
2012,08,27,01,17,11.40
2012,08,27,01,18,11.40
2012,08,27,01,19,11.40
2012,08,27,01,20,11.40
2012,08,27,01,21,11.40
2012,08,27,01,22,11.40
2012,08,27,01,23,11.40
2012,08,27,01,24,11.40
2012,08,27,01,25,11.40
2012,08,27,01,26,11.40
2012,08,27,01,27,11.40
2012,08,27,01,28,11.40
2012,08,27,01,29,11.40
2012,08,27,01,30,11.40
2012,08,27,01,31,11.40
2012,08,27,01,32,11.40
2012,08,27,01,33,11.40
2012,08,27,01,34,11.30
2012,08,27,01,35,11.30
2012,08,27,01,36,11.30
2012,08,27,01,37,11.30
2012,08,27,01,38,11.30
2012,08,27,01,39,11.30
2012,08,27,01,40,11.30
2012,08,27,01,41,11.30
2012,08,27,01,42,11.30
2012,08,27,01,43,11.30
2012,08,27,01,44,11.30
2012,08,27,01,45,11.30
2012,08,27,01,46,11.30
2012,08,27,01,47,11.20
2012,08,27,01,48,11.20
2012,08,27,01,49,11.20
2012,08,27,01,50,11.20
2012,08,27,01,51,11.20
2012,08,27,01,52,11.20
2012,08,27,01,53,11.20
2012,08,27,01,54,11.20
2012,08,27,01,55,11.20
2012,08,27,01,56,11.20
2012,08,27,01,57,11.20
2012,08,27,01,58,11.20
2012,08,27,01,59,11.20
2012,08,27,02,00,11.20
2012,08,27,02,01,11.20
2012,08,27,02,02,11.20
2012,08,27,02,03,11.10
2012,08,27,02,04,11.10
2012,08,27,02,05,11.10
2012,08,27,02,06,11.10
2012,08,27,02,07,11.10
2012,08,27,02,08,11.10
2012,08,27,02,09,11.10
2012,08,27,02,10,11.10
2012,08,27,02,11,11.10
2012,08,27,02,12,11.10
2012,08,27,02,13,11.10
2012,08,27,02,14,11.00
2012,08,27,02,15,10.90
2012,08,27,02,16,10.90
2012,08,27,02,17,10.90
2012,08,27,02,18,10.90
2012,08,27,02,19,10.90
2012,08,27,02,20,10.90
2012,08,27,02,21,10.90
2012,08,27,02,22,10.90
2012,08,27,02,23,10.90
2012,08,27,02,24,10.80
2012,08,27,02,25,10.80
2012,08,27,02,26,10.80
2012,08,27,02,27,10.80
2012,08,27,02,28,10.80
2012,08,27,02,29,10.80
2012,08,27,02,30,10.80
2012,08,27,02,31,10.80
2012,08,27,02,32,10.80
2012,08,27,02,33,10.80
2012,08,27,02,34,10.70
2012,08,27,02,35,10.70
2012,08,27,02,36,10.70
2012,08,27,02,37,10.70
2012,08,27,02,38,10.70
2012,08,27,02,39,10.70
2012,08,27,02,40,10.70
2012,08,27,02,41,10.70
2012,08,27,02,42,10.60
2012,08,27,02,43,10.60
2012,08,27,02,44,10.60
2012,08,27,02,45,10.60
2012,08,27,02,46,10.60
2012,08,27,02,47,10.60
2012,08,27,02,48,10.60
2012,08,27,02,49,10.60
2012,08,27,02,50,10.60
2012,08,27,02,51,10.50
2012,08,27,02,52,10.40
2012,08,27,02,53,10.40
2012,08,27,02,54,10.40
2012,08,27,02,55,10.40
2012,08,27,02,56,10.40
2012,08,27,02,57,10.40
2012,08,27,02,58,10.40
2012,08,27,02,59,10.40
2012,08,27,03,00,10.40
2012,08,27,03,01,10.40
2012,08,27,03,02,10.40
2012,08,27,03,03,10.30
2012,08,27,03,04,10.30
2012,08,27,03,05,10.30
2012,08,27,03,06,10.30
2012,08,27,03,07,10.30
2012,08,27,03,08,10.30
2012,08,27,03,09,10.20
2012,08,27,03,10,10.20
2012,08,27,03,11,10.20
2012,08,27,03,12,10.20
2012,08,27,03,13,10.20
2012,08,27,03,14,10.20
2012,08,27,03,15,10.10
2012,08,27,03,16,10.10
2012,08,27,03,17,10.10
2012,08,27,03,18,10.10
2012,08,27,03,19,10.10
2012,08,27,03,20,10.10
2012,08,27,03,21,10.10
2012,08,27,03,22,10.10
2012,08,27,03,23,10.10
2012,08,27,03,24,10.10
2012,08,27,03,25,10.10
2012,08,27,03,26,10.10
2012,08,27,03,27,10.10
2012,08,27,03,28,10.10
2012,08,27,03,29,10.10
2012,08,27,03,30,10.10
2012,08,27,03,31,10.10
2012,08,27,03,32,10.10
2012,08,27,03,33,10.10
2012,08,27,03,34,10.10
2012,08,27,03,35,10.10
2012,08,27,03,36,10.10
2012,08,27,03,37,10.00
2012,08,27,03,38,9.90
2012,08,27,03,39,9.90
2012,08,27,03,40,9.90
2012,08,27,03,41,9.90
2012,08,27,03,42,9.90
2012,08,27,03,43,9.90
2012,08,27,03,44,9.90
2012,08,27,03,45,9.90
2012,08,27,03,46,9.90
2012,08,27,03,47,9.90
2012,08,27,03,48,9.90
2012,08,27,03,49,9.90
2012,08,27,03,50,9.90
2012,08,27,03,51,9.90
2012,08,27,03,52,9.90
2012,08,27,03,53,9.90
2012,08,27,03,54,9.90
2012,08,27,03,55,9.90
2012,08,27,03,56,9.90
2012,08,27,03,57,9.90
2012,08,27,03,58,9.90
2012,08,27,03,59,9.90
2012,08,27,04,00,9.90
2012,08,27,04,01,9.90
2012,08,27,04,02,9.90
2012,08,27,04,03,9.90
2012,08,27,04,04,9.90
2012,08,27,04,05,9.90
2012,08,27,04,06,9.90
2012,08,27,04,07,9.90
2012,08,27,04,08,9.90
2012,08,27,04,09,9.90
2012,08,27,04,10,9.90
2012,08,27,04,11,9.90
2012,08,27,04,12,9.90
2012,08,27,04,13,9.90
2012,08,27,04,14,9.90
2012,08,27,04,15,9.90
2012,08,27,04,16,9.90
2012,08,27,04,17,9.90
2012,08,27,04,18,9.90
2012,08,27,04,19,9.90
2012,08,27,04,20,9.90
2012,08,27,04,21,9.90
2012,08,27,04,22,9.90
2012,08,27,04,23,9.90
2012,08,27,04,24,9.90
2012,08,27,04,25,9.80
2012,08,27,04,26,9.80
2012,08,27,04,27,9.80
2012,08,27,04,28,9.80
2012,08,27,04,29,9.80
2012,08,27,04,30,9.80
2012,08,27,04,31,9.80
2012,08,27,04,32,9.80
2012,08,27,04,33,9.80
2012,08,27,04,34,9.80
2012,08,27,04,35,9.80
2012,08,27,04,36,9.70
2012,08,27,04,37,9.70
2012,08,27,04,38,9.70
2012,08,27,04,39,9.70
2012,08,27,04,40,9.70
2012,08,27,04,41,9.70
2012,08,27,04,42,9.70
2012,08,27,04,43,9.70
2012,08,27,04,44,9.70
2012,08,27,04,45,9.70
2012,08,27,04,46,9.70
2012,08,27,04,47,9.70
2012,08,27,04,48,9.70
2012,08,27,04,49,9.70
2012,08,27,04,50,9.70
2012,08,27,04,51,9.70
2012,08,27,04,52,9.70
2012,08,27,04,53,9.70
2012,08,27,04,54,9.70
2012,08,27,04,55,9.70
2012,08,27,04,56,9.70
2012,08,27,04,57,9.70
2012,08,27,04,58,9.70
2012,08,27,04,59,9.70
2012,08,27,05,00,9.70
2012,08,27,05,01,9.70
2012,08,27,05,02,9.70
2012,08,27,05,03,9.70
2012,08,27,05,04,9.70
2012,08,27,05,05,9.70
2012,08,27,05,06,9.70
2012,08,27,05,07,9.70
2012,08,27,05,08,9.70
2012,08,27,05,09,9.70
2012,08,27,05,10,9.70
2012,08,27,05,11,9.70
2012,08,27,05,12,9.70
2012,08,27,05,13,9.70
2012,08,27,05,14,9.70
2012,08,27,05,15,9.70
2012,08,27,05,16,9.70
2012,08,27,05,17,9.70
2012,08,27,05,18,9.70
2012,08,27,05,19,9.70
2012,08,27,05,20,9.70
2012,08,27,05,21,9.70
2012,08,27,05,22,9.70
2012,08,27,05,23,9.70
2012,08,27,05,24,9.70
2012,08,27,05,25,9.70
2012,08,27,05,26,9.70
2012,08,27,05,27,9.70
2012,08,27,05,28,9.70
2012,08,27,05,29,9.60
2012,08,27,05,30,9.60
2012,08,27,05,31,9.60
2012,08,27,05,32,9.60
2012,08,27,05,33,9.60
2012,08,27,05,34,9.60
2012,08,27,05,35,9.60
2012,08,27,05,36,9.60
2012,08,27,05,37,9.60
2012,08,27,05,38,9.60
2012,08,27,05,39,9.60
2012,08,27,05,40,9.60
2012,08,27,05,41,9.60
2012,08,27,05,42,9.60
2012,08,27,05,43,9.60
2012,08,27,05,44,9.60
2012,08,27,05,45,9.60
2012,08,27,05,46,9.60
2012,08,27,05,47,9.60
2012,08,27,05,48,9.60
2012,08,27,05,49,9.60
2012,08,27,05,50,9.60
2012,08,27,05,51,9.60
2012,08,27,05,52,9.60
2012,08,27,05,53,9.60
2012,08,27,05,54,9.60
2012,08,27,05,55,9.60
2012,08,27,05,56,9.60
2012,08,27,05,57,9.60
2012,08,27,05,58,9.60
2012,08,27,05,59,9.70
2012,08,27,06,00,9.70
2012,08,27,06,01,9.70
2012,08,27,06,02,9.70
2012,08,27,06,03,9.60
2012,08,27,06,04,9.60
2012,08,27,06,05,9.60
2012,08,27,06,06,9.60
2012,08,27,06,07,9.50
2012,08,27,06,08,9.50
2012,08,27,06,09,9.50
2012,08,27,06,10,9.50
2012,08,27,06,11,9.50
2012,08,27,06,12,9.50
2012,08,27,06,13,9.50
2012,08,27,06,14,9.50
2012,08,27,06,15,9.50
2012,08,27,06,16,9.50
2012,08,27,06,17,9.50
2012,08,27,06,18,9.50
2012,08,27,06,19,9.60
2012,08,27,06,20,9.60
2012,08,27,06,21,9.60
2012,08,27,06,22,9.60
2012,08,27,06,23,9.60
2012,08,27,06,24,9.60
2012,08,27,06,25,9.60
2012,08,27,06,26,9.60
2012,08,27,06,27,9.60
2012,08,27,06,28,9.60
2012,08,27,06,29,9.60
2012,08,27,06,30,9.60
2012,08,27,06,31,9.50
2012,08,27,06,32,9.50
2012,08,27,06,33,9.50
2012,08,27,06,34,9.50
2012,08,27,06,35,9.50
2012,08,27,06,36,9.50
2012,08,27,06,37,9.40
2012,08,27,06,38,9.40
2012,08,27,06,39,9.40
2012,08,27,06,40,9.40
2012,08,27,06,41,9.40
2012,08,27,06,42,9.40
2012,08,27,06,43,9.40
2012,08,27,06,44,9.40
2012,08,27,06,45,9.40
2012,08,27,06,46,9.40
2012,08,27,06,47,9.50
2012,08,27,06,48,9.50
2012,08,27,06,49,9.50
2012,08,27,06,50,9.50
2012,08,27,06,51,9.50
2012,08,27,06,52,9.50
2012,08,27,06,53,9.50
2012,08,27,06,54,9.50
2012,08,27,06,55,9.50
2012,08,27,06,56,9.50
2012,08,27,06,57,9.40
2012,08,27,06,58,9.40
2012,08,27,06,59,9.50
2012,08,27,07,00,9.50
2012,08,27,07,01,9.50
2012,08,27,07,02,9.50
2012,08,27,07,03,9.50
2012,08,27,07,04,9.40
2012,08,27,07,05,9.40
2012,08,27,07,06,9.40
2012,08,27,07,07,9.40
2012,08,27,07,08,9.40
2012,08,27,07,09,9.40
2012,08,27,07,10,9.40
2012,08,27,07,11,9.40
2012,08,27,07,12,9.40
2012,08,27,07,13,9.40
2012,08,27,07,14,9.40
2012,08,27,07,15,9.40
2012,08,27,07,16,9.40
2012,08,27,07,17,9.40
2012,08,27,07,18,9.40
2012,08,27,07,19,9.40
2012,08,27,07,20,9.40
2012,08,27,07,21,9.40
2012,08,27,07,22,9.40
2012,08,27,07,23,9.40
2012,08,27,07,24,9.40
2012,08,27,07,25,9.40
2012,08,27,07,26,9.50
2012,08,27,07,27,9.50
2012,08,27,07,28,9.50
2012,08,27,07,29,9.50
2012,08,27,07,30,9.60
2012,08,27,07,31,9.60
2012,08,27,07,32,9.60
2012,08,27,07,33,9.70
2012,08,27,07,34,9.70
2012,08,27,07,35,9.70
2012,08,27,07,36,9.70
2012,08,27,07,37,9.70
2012,08,27,07,38,9.70
2012,08,27,07,39,9.70
2012,08,27,07,40,9.70
2012,08,27,07,41,9.70
2012,08,27,07,42,9.80
2012,08,27,07,43,9.80
2012,08,27,07,44,9.80
2012,08,27,07,45,9.80
2012,08,27,07,46,9.90
2012,08,27,07,47,9.90
2012,08,27,07,48,9.90
2012,08,27,07,49,9.90
2012,08,27,07,50,9.90
2012,08,27,07,51,9.90
2012,08,27,07,52,9.90
2012,08,27,07,53,9.90
2012,08,27,07,54,9.90
2012,08,27,07,55,9.90
2012,08,27,07,56,9.90
2012,08,27,07,57,9.90
2012,08,27,07,58,9.90
2012,08,27,07,59,9.90
2012,08,27,08,00,10.00
2012,08,27,08,01,10.10
2012,08,27,08,02,10.10
2012,08,27,08,03,10.10
2012,08,27,08,04,10.10
2012,08,27,08,05,10.10
2012,08,27,08,06,10.10
2012,08,27,08,07,10.10
2012,08,27,08,08,10.20
2012,08,27,08,09,10.20
2012,08,27,08,10,10.20
2012,08,27,08,11,10.20
2012,08,27,08,12,10.30
2012,08,27,08,13,10.30
2012,08,27,08,14,10.30
2012,08,27,08,15,10.30
2012,08,27,08,16,10.30
2012,08,27,08,17,10.40
2012,08,27,08,18,10.40
2012,08,27,08,19,10.40
2012,08,27,08,20,10.40
2012,08,27,08,21,10.40
2012,08,27,08,22,10.40
2012,08,27,08,23,10.40
2012,08,27,08,24,10.40
2012,08,27,08,25,10.40
2012,08,27,08,26,10.40
2012,08,27,08,27,10.50
2012,08,27,08,28,10.60
2012,08,27,08,29,10.60
2012,08,27,08,30,10.60
2012,08,27,08,31,10.60
2012,08,27,08,32,10.60
2012,08,27,08,33,10.60
2012,08,27,08,34,10.60
2012,08,27,08,35,10.60
2012,08,27,08,36,10.60
2012,08,27,08,37,10.60
2012,08,27,08,38,10.70
2012,08,27,08,39,10.70
2012,08,27,08,40,10.70
2012,08,27,08,41,10.70
2012,08,27,08,42,10.70
2012,08,27,08,43,10.80
2012,08,27,08,44,10.80
2012,08,27,08,45,10.80
2012,08,27,08,46,10.80
2012,08,27,08,47,10.90
2012,08,27,08,48,10.90
2012,08,27,08,49,10.90
2012,08,27,08,50,10.90
2012,08,27,08,51,10.90
2012,08,27,08,52,10.90
2012,08,27,08,53,10.90
2012,08,27,08,54,11.00
2012,08,27,08,55,11.10
2012,08,27,08,56,11.10
2012,08,27,08,57,11.10
2012,08,27,08,58,11.10
2012,08,27,08,59,11.10
2012,08,27,09,00,11.20
2012,08,27,09,01,11.20
2012,08,27,09,02,11.30
2012,08,27,09,03,11.30
2012,08,27,09,04,11.30
2012,08,27,09,05,11.30
2012,08,27,09,06,11.40
2012,08,27,09,07,11.40
2012,08,27,09,08,11.40
2012,08,27,09,09,11.40
2012,08,27,09,10,11.40
2012,08,27,09,11,11.40
2012,08,27,09,12,11.50
2012,08,27,09,13,11.60
2012,08,27,09,14,11.60
2012,08,27,09,15,11.60
2012,08,27,09,16,11.60
2012,08,27,09,17,11.60
2012,08,27,09,18,11.60
2012,08,27,09,19,11.70
2012,08,27,09,20,11.70
2012,08,27,09,21,11.80
2012,08,27,09,22,11.80
2012,08,27,09,23,11.80
2012,08,27,09,24,11.80
2012,08,27,09,25,11.90
2012,08,27,09,26,11.90
2012,08,27,09,27,11.90
2012,08,27,09,28,12.00
2012,08,27,09,29,12.00
2012,08,27,09,30,12.00
2012,08,27,09,31,12.10
2012,08,27,09,32,12.10
2012,08,27,09,33,12.10
2012,08,27,09,34,12.20
2012,08,27,09,35,12.20
2012,08,27,09,36,12.30
2012,08,27,09,37,12.30
2012,08,27,09,38,12.30
2012,08,27,09,39,12.30
2012,08,27,09,40,12.30
2012,08,27,09,41,12.40
2012,08,27,09,42,12.40
2012,08,27,09,43,12.50
2012,08,27,09,44,12.50
2012,08,27,09,45,12.50
2012,08,27,09,46,12.60
2012,08,27,09,47,12.60
2012,08,27,09,48,12.70
2012,08,27,09,49,12.70
2012,08,27,09,50,12.80
2012,08,27,09,51,12.80
2012,08,27,09,52,12.80
2012,08,27,09,53,12.90
2012,08,27,09,54,12.90
2012,08,27,09,55,13.00
2012,08,27,09,56,13.00
2012,08,27,09,57,13.10
2012,08,27,09,58,13.10
2012,08,27,09,59,13.20
2012,08,27,10,00,13.20
2012,08,27,10,01,13.30
2012,08,27,10,02,13.30
2012,08,27,10,03,13.30
2012,08,27,10,04,13.30
2012,08,27,10,05,13.40
2012,08,27,10,06,13.40
2012,08,27,10,07,13.50
2012,08,27,10,08,13.50
2012,08,27,10,09,13.50
2012,08,27,10,10,13.60
2012,08,27,10,11,13.60
2012,08,27,10,12,13.60
2012,08,27,10,13,13.70
2012,08,27,10,14,13.70
2012,08,27,10,15,13.70
2012,08,27,10,16,13.80
2012,08,27,10,17,13.80
2012,08,27,10,18,13.80
2012,08,27,10,19,13.90
2012,08,27,10,20,13.90
2012,08,27,10,21,14.00
2012,08,27,10,22,14.00
2012,08,27,10,23,14.10
2012,08,27,10,24,14.10
2012,08,27,10,25,14.20
2012,08,27,10,26,14.20
2012,08,27,10,27,14.20
2012,08,27,10,28,14.30
2012,08,27,10,29,14.30
2012,08,27,10,30,14.40
2012,08,27,10,31,14.40
2012,08,27,10,32,14.50
2012,08,27,10,33,14.60
2012,08,27,10,34,14.60
2012,08,27,10,35,14.70
2012,08,27,10,36,14.80
2012,08,27,10,37,14.80
2012,08,27,10,38,14.80
2012,08,27,10,39,14.90
2012,08,27,10,40,14.90
2012,08,27,10,41,14.90
2012,08,27,10,42,15.00
2012,08,27,10,43,15.00
2012,08,27,10,44,15.10
2012,08,27,10,45,15.20
2012,08,27,10,46,15.20
2012,08,27,10,47,15.30
2012,08,27,10,48,15.30
2012,08,27,10,49,15.40
2012,08,27,10,50,15.50
2012,08,27,10,51,15.50
2012,08,27,10,52,15.60
2012,08,27,10,53,15.70
2012,08,27,10,54,15.70
2012,08,27,10,55,15.80
2012,08,27,10,56,15.80
2012,08,27,10,57,15.90
2012,08,27,10,58,16.00
2012,08,27,10,59,16.10
2012,08,27,11,00,16.10
2012,08,27,11,01,16.20
2012,08,27,11,02,16.20
2012,08,27,11,03,16.30
2012,08,27,11,04,16.30
2012,08,27,11,05,16.40
2012,08,27,11,06,16.40
2012,08,27,11,07,16.40
2012,08,27,11,08,16.50
2012,08,27,11,09,16.60
2012,08,27,11,10,16.70
2012,08,27,11,11,16.70
2012,08,27,11,12,16.70
2012,08,27,11,13,16.70
2012,08,27,11,14,16.80
2012,08,27,11,15,16.80
2012,08,27,11,16,16.90
2012,08,27,11,17,17.00
2012,08,27,11,18,17.10
2012,08,27,11,19,17.10
2012,08,27,11,20,17.20
2012,08,27,11,21,17.30
2012,08,27,11,22,17.30
2012,08,27,11,23,17.30
2012,08,27,11,24,17.30
2012,08,27,11,25,17.40
2012,08,27,11,26,17.40
2012,08,27,11,27,17.50
2012,08,27,11,28,17.50
2012,08,27,11,29,17.50
2012,08,27,11,30,17.50
2012,08,27,11,31,17.50
2012,08,27,11,32,17.50
2012,08,27,11,33,17.50
2012,08,27,11,34,17.50
2012,08,27,11,35,17.50
2012,08,27,11,36,17.40
2012,08,27,11,37,17.40
2012,08,27,11,38,17.40
2012,08,27,11,39,17.30
2012,08,27,11,40,17.30
2012,08,27,11,41,17.30
2012,08,27,11,42,17.30
2012,08,27,11,43,17.30
2012,08,27,11,44,17.30
2012,08,27,11,45,17.30
2012,08,27,11,46,17.30
2012,08,27,11,47,17.30
2012,08,27,11,48,17.30
2012,08,27,11,49,17.30
2012,08,27,11,50,17.30
2012,08,27,11,51,17.30
2012,08,27,11,52,17.30
2012,08,27,11,53,17.30
2012,08,27,11,54,17.30
2012,08,27,11,55,17.30
2012,08,27,11,56,17.30
2012,08,27,11,57,17.20
2012,08,27,11,58,17.30
2012,08,27,11,59,17.30
2012,08,27,12,00,17.30
2012,08,27,12,01,17.30
2012,08,27,12,02,17.30
2012,08,27,12,03,17.30
2012,08,27,12,04,17.30
2012,08,27,12,05,17.30
2012,08,27,12,06,17.30
2012,08,27,12,07,17.30
2012,08,27,12,08,17.30
2012,08,27,12,09,17.40
2012,08,27,12,10,17.40
2012,08,27,12,11,17.40
2012,08,27,12,12,17.40
2012,08,27,12,13,17.40
2012,08,27,12,14,17.40
2012,08,27,12,15,17.50
2012,08,27,12,16,17.50
2012,08,27,12,17,17.50
2012,08,27,12,18,17.50
2012,08,27,12,19,17.40
2012,08,27,12,20,17.40
2012,08,27,12,21,17.40
2012,08,27,12,22,17.40
2012,08,27,12,23,17.40
2012,08,27,12,24,17.40
2012,08,27,12,25,17.50
2012,08,27,12,26,17.50
2012,08,27,12,27,17.50
2012,08,27,12,28,17.50
2012,08,27,12,29,17.50
2012,08,27,12,30,17.50
2012,08,27,12,31,17.50
2012,08,27,12,32,17.40
2012,08,27,12,33,17.40
2012,08,27,12,34,17.40
2012,08,27,12,35,17.30
2012,08,27,12,36,17.30
2012,08,27,12,37,17.30
2012,08,27,12,38,17.30
2012,08,27,12,39,17.30
2012,08,27,12,40,17.30
2012,08,27,12,41,17.20
2012,08,27,12,42,17.20
2012,08,27,12,43,17.20
2012,08,27,12,44,17.20
2012,08,27,12,45,17.10
2012,08,27,12,46,17.10
2012,08,27,12,47,17.10
2012,08,27,12,48,17.10
2012,08,27,12,49,17.10
2012,08,27,12,50,17.00
2012,08,27,12,51,17.00
2012,08,27,12,52,17.00
2012,08,27,12,53,17.00
2012,08,27,12,54,17.00
2012,08,27,12,55,16.90
2012,08,27,12,56,16.90
2012,08,27,12,57,16.90
2012,08,27,12,58,16.90
2012,08,27,12,59,16.90
2012,08,27,13,00,16.90
2012,08,27,13,01,16.80
2012,08,27,13,02,16.80
2012,08,27,13,03,16.80
2012,08,27,13,04,16.70
2012,08,27,13,05,16.70
2012,08,27,13,06,16.70
2012,08,27,13,07,16.60
2012,08,27,13,08,16.60
2012,08,27,13,09,16.60
2012,08,27,13,10,16.60
2012,08,27,13,11,16.60
2012,08,27,13,12,16.60
2012,08,27,13,13,16.60
2012,08,27,13,14,16.60
2012,08,27,13,15,16.60
2012,08,27,13,16,16.60
2012,08,27,13,17,16.60
2012,08,27,13,18,16.60
2012,08,27,13,19,16.70
2012,08,27,13,20,16.70
2012,08,27,13,21,16.70
2012,08,27,13,22,16.70
2012,08,27,13,23,16.80
2012,08,27,13,24,16.80
2012,08,27,13,25,16.80
2012,08,27,13,26,16.90
2012,08,27,13,27,16.90
2012,08,27,13,28,17.00
2012,08,27,13,29,17.00
2012,08,27,13,30,17.10
2012,08,27,13,31,17.10
2012,08,27,13,32,17.20
2012,08,27,13,33,17.20
2012,08,27,13,34,17.20
2012,08,27,13,35,17.20
2012,08,27,13,36,17.20
2012,08,27,13,37,17.20
2012,08,27,13,38,17.30
2012,08,27,13,39,17.30
2012,08,27,13,40,17.30
2012,08,27,13,41,17.30
2012,08,27,13,42,17.40
2012,08,27,13,43,17.40
2012,08,27,13,44,17.50
2012,08,27,13,45,17.50
2012,08,27,13,46,17.60
2012,08,27,13,47,17.70
2012,08,27,13,48,17.80
2012,08,27,13,49,17.80
2012,08,27,13,50,17.90
2012,08,27,13,51,17.90
2012,08,27,13,52,17.90
2012,08,27,13,53,18.00
2012,08,27,13,54,18.10
2012,08,27,13,55,18.10
2012,08,27,13,56,18.20
2012,08,27,13,57,18.20
2012,08,27,13,58,18.20
2012,08,27,13,59,18.20
2012,08,27,14,00,18.20
2012,08,27,14,01,18.30
2012,08,27,14,02,18.20
2012,08,27,14,03,18.20
2012,08,27,14,04,18.20
2012,08,27,14,05,18.20
2012,08,27,14,06,18.20
2012,08,27,14,07,18.20
2012,08,27,14,08,18.30
2012,08,27,14,09,18.40
2012,08,27,14,10,18.40
2012,08,27,14,11,18.40
2012,08,27,14,12,18.50
2012,08,27,14,13,18.60
2012,08,27,14,14,18.60
2012,08,27,14,15,18.70
2012,08,27,14,16,18.90
2012,08,27,14,17,18.90
2012,08,27,14,18,19.00
2012,08,27,14,19,19.10
2012,08,27,14,20,19.10
2012,08,27,14,21,19.20
2012,08,27,14,22,19.30
2012,08,27,14,23,19.40
2012,08,27,14,24,19.40
2012,08,27,14,25,19.50
2012,08,27,14,26,19.50
2012,08,27,14,27,19.50
2012,08,27,14,28,19.50
2012,08,27,14,29,19.50
2012,08,27,14,30,19.50
2012,08,27,14,31,19.60
2012,08,27,14,32,19.60
2012,08,27,14,33,19.60
2012,08,27,14,34,19.60
2012,08,27,14,35,19.60
2012,08,27,14,36,19.60
2012,08,27,14,37,19.80
2012,08,27,14,38,19.90
2012,08,27,14,39,20.00
2012,08,27,14,40,20.10
2012,08,27,14,41,20.20
2012,08,27,14,42,20.20
2012,08,27,14,43,20.30
2012,08,27,14,44,20.30
2012,08,27,14,45,20.40
2012,08,27,14,46,20.40
2012,08,27,14,47,20.50
2012,08,27,14,48,20.40
2012,08,27,14,49,20.20
2012,08,27,14,50,20.10
2012,08,27,14,51,20.10
2012,08,27,14,52,19.90
2012,08,27,14,53,19.90
2012,08,27,14,54,19.90
2012,08,27,14,55,20.00
2012,08,27,14,56,20.10
2012,08,27,14,57,20.10
2012,08,27,14,58,20.00
2012,08,27,14,59,20.00
2012,08,27,15,00,20.10
2012,08,27,15,01,20.10
2012,08,27,15,02,20.10
2012,08,27,15,03,20.20
2012,08,27,15,04,20.20
2012,08,27,15,05,20.20
2012,08,27,15,06,20.20
2012,08,27,15,07,20.20
2012,08,27,15,08,20.20
2012,08,27,15,09,20.20
2012,08,27,15,10,20.20
2012,08,27,15,11,20.20
2012,08,27,15,12,20.20
2012,08,27,15,13,20.10
2012,08,27,15,14,20.00
2012,08,27,15,15,20.00
2012,08,27,15,16,20.10
2012,08,27,15,17,20.20
2012,08,27,15,18,20.20
2012,08,27,15,19,20.30
2012,08,27,15,20,20.40
2012,08,27,15,21,20.40
2012,08,27,15,22,20.40
2012,08,27,15,23,20.40
2012,08,27,15,24,20.50
2012,08,27,15,25,20.60
2012,08,27,15,26,20.70
2012,08,27,15,27,20.70
2012,08,27,15,28,20.80
2012,08,27,15,29,20.90
2012,08,27,15,30,20.90
2012,08,27,15,31,20.90
2012,08,27,15,32,21.00
2012,08,27,15,33,20.90
2012,08,27,15,34,20.90
2012,08,27,15,35,20.90
2012,08,27,15,36,20.90
2012,08,27,15,37,20.90
2012,08,27,15,38,20.80
2012,08,27,15,39,20.80
2012,08,27,15,40,20.70
2012,08,27,15,41,20.80
2012,08,27,15,42,20.80
2012,08,27,15,43,20.80
2012,08,27,15,44,20.80
2012,08,27,15,45,20.80
2012,08,27,15,46,20.70
2012,08,27,15,47,20.70
2012,08,27,15,48,20.70
2012,08,27,15,49,20.70
2012,08,27,15,50,20.60
2012,08,27,15,51,20.60
2012,08,27,15,52,20.60
2012,08,27,15,53,20.50
2012,08,27,15,54,20.50
2012,08,27,15,55,20.50
2012,08,27,15,56,20.50
2012,08,27,15,57,20.50
2012,08,27,15,58,20.40
2012,08,27,15,59,20.40
2012,08,27,16,00,20.40
2012,08,27,16,01,20.30
2012,08,27,16,02,20.30
2012,08,27,16,03,20.20
2012,08,27,16,04,20.20
2012,08,27,16,05,20.20
2012,08,27,16,06,20.20
2012,08,27,16,07,20.10
2012,08,27,16,08,20.10
2012,08,27,16,09,20.10
2012,08,27,16,10,20.10
2012,08,27,16,11,20.10
2012,08,27,16,12,20.10
2012,08,27,16,13,19.90
2012,08,27,16,14,19.90
2012,08,27,16,15,19.90
2012,08,27,16,16,19.90
2012,08,27,16,17,19.90
2012,08,27,16,18,19.90
2012,08,27,16,19,20.00
2012,08,27,16,20,20.10
2012,08,27,16,21,20.10
2012,08,27,16,22,20.10
2012,08,27,16,23,20.10
2012,08,27,16,24,20.00
2012,08,27,16,25,19.90
2012,08,27,16,26,19.90
2012,08,27,16,27,19.90
2012,08,27,16,28,19.90
2012,08,27,16,29,19.90
2012,08,27,16,30,19.90
2012,08,27,16,31,19.90
2012,08,27,16,32,19.90
2012,08,27,16,33,19.90
2012,08,27,16,34,19.90
2012,08,27,16,35,19.90
2012,08,27,16,36,19.90
2012,08,27,16,37,19.90
2012,08,27,16,38,19.90
2012,08,27,16,39,19.90
2012,08,27,16,40,20.10
2012,08,27,16,41,20.10
2012,08,27,16,42,20.10
2012,08,27,16,43,20.10
2012,08,27,16,44,20.10
2012,08,27,16,45,20.10
2012,08,27,16,46,20.10
2012,08,27,16,47,20.10
2012,08,27,16,48,19.90
2012,08,27,16,49,19.90
2012,08,27,16,50,19.90
2012,08,27,16,51,19.90
2012,08,27,16,52,19.90
2012,08,27,16,53,19.90
2012,08,27,16,54,19.90
2012,08,27,16,55,19.90
2012,08,27,16,56,19.90
2012,08,27,16,57,19.90
2012,08,27,16,58,19.90
2012,08,27,16,59,19.90
2012,08,27,17,00,19.90
2012,08,27,17,01,19.90
2012,08,27,17,02,19.90
2012,08,27,17,03,19.90
2012,08,27,17,04,19.80
2012,08,27,17,05,19.80
2012,08,27,17,06,19.80
2012,08,27,17,07,19.80
2012,08,27,17,08,19.80
2012,08,27,17,09,19.80
2012,08,27,17,10,19.80
2012,08,27,17,11,19.80
2012,08,27,17,12,19.80
2012,08,27,17,13,19.80
2012,08,27,17,14,19.80
2012,08,27,17,15,19.80
2012,08,27,17,16,19.80
2012,08,27,17,17,19.80
2012,08,27,17,18,19.70
2012,08,27,17,19,19.70
2012,08,27,17,20,19.70
2012,08,27,17,21,19.70
2012,08,27,17,22,19.70
2012,08,27,17,23,19.70
2012,08,27,17,24,19.70
2012,08,27,17,25,19.70
2012,08,27,17,26,19.70
2012,08,27,17,27,19.60
2012,08,27,17,28,19.60
2012,08,27,17,29,19.60
2012,08,27,17,30,19.60